Location: Corcelles
(46.1547°N, 4.7234°E)
Time: 04:10:56
(UTC+00:00)

Cosmos 1782 Rocket - Pass Details

Date: 14 July 2020
Orbit: 606 x 633 km, 82.5° (Epoch: 06 August)

Event Time Altitude Azimuth Distance (km) Brightness Sun altitude
Exits shadow 02:53:00 - 176° (S) 2,601 6.4 -10.2°
Reaches altitude 10° 02:54:29 10° 173° (S) 2,001 5.8 -10.1°
Maximum altitude 02:58:51 58° 95° (E) 733 4.2 -9.5°
Drops below altitude 10° 03:03:12 10° 17° (NNE) 2,002 7.3 -9.0°
Sets 03:05:27 0° 13° (NNE) 2,909 8.1 -8.7°
